Eilat, Israel

4:47 AM IDT on June 24, 2017 (GMT +0300)
Eilat

Weather History for LLET - April, 2013

Change the Weather History Date:

Tuesday, April 23, 2013

  Actual Average Record
Temperature  
Mean Temperature 73 °F -  
Max Temperature 85 °F 91 °F 109 °F (2008)
Min Temperature 61 °F 70 °F 60 °F (1998)
Cooling Degree Days 8    
Growing Degree Days 23 (Base 50)    
Moisture  
Dew Point 37 °F    
Average Humidity 24    
Maximum Humidity 48    
Minimum Humidity 8    
Precipitation  
Precipitation 0.00 in 0.00 in - ()
Sea Level Pressure  
Sea Level Pressure 30.01 in    
Wind  
Wind Speed 11 mph ()    
Max Wind Speed 21 mph    
Max Gust Speed -    
Visibility 13.7 miles    
Events      
Averages and records for this station are not official NWS values.
T = Trace of Precipitation, MM = Missing Value Source: Averaged Metar Reports

Daily Weather History Graph

Daily Weather History Graph

Search for Another Location

Airport or City:

Trip Planner

Search our weather history database for the weather conditions in past years. The results will help you decide how hot, cold, wet, or windy it might be!

Date:

Astronomy

Apr. 23, 2013 Rise Set
Actual Time 6:05 AM IDT 7:11 PM IDT
Civil Twilight 5:40 AM IDT 7:36 PM IDT
Nautical Twilight 5:11 AM IDT 8:06 PM IDT
Astronomical Twilight 4:41 AM IDT 8:36 PM IDT
Moon 4:53 PM IDT (4/23) 4:09 AM IDT (4/23)
Length of Visible Light 13h 55m
Length of Day
13h 06m
Waxing Gibbous, 92% of the Moon is Illuminated
Apr 23
Waxing Gibbous
Apr 25
Full
May 2
Last Quarter
May 10
New
May 18
First Quarter

Hourly Weather History & Observations

Time (IDT) Temp. Dew Point Humidity Pressure Visibility Wind Dir Wind Speed Gust Speed Precip Events Conditions
3:00 AM 67 °F 42 °F 28% 29.99 in - NNW 8.1 mph - -  
5:50 AM 62.6 °F 42.8 °F 48% 30.01 in - NNE 9.2 mph - N/A   Clear
6:50 AM 62.6 °F 41.0 °F 45% 30.04 in - NNE 8.1 mph - N/A   Clear
7:50 AM 64.4 °F 42.8 °F 45% 30.04 in - NNE 12.7 mph - N/A   Clear
8:50 AM 68.0 °F 42.8 °F 40% 30.06 in - NE 11.5 mph - N/A   Clear
9:00 AM 71 °F 41 °F 22% 30.05 in 16 mi NE 4.6 mph - -   Clear
9:50 AM 71.6 °F 41.0 °F 33% 30.06 in - NNE 16.1 mph - N/A   Clear
10:50 AM 75.2 °F 41.0 °F 29% 30.06 in - NNE 16.1 mph - N/A   Clear
11:50 AM 77.0 °F 39.2 °F 26% 30.04 in - NNE 16.1 mph - N/A   Clear
12:50 PM 78.8 °F 39.2 °F 24% 30.04 in - NNE 16.1 mph - N/A   Clear
1:50 PM 82.4 °F 37.4 °F 20% 30.01 in - NE 13.8 mph - N/A   Clear
2:50 PM 84.2 °F 33.8 °F 16% 29.98 in - NNE 15.0 mph - N/A   Clear
3:00 PM 85 °F 33 °F 8% 29.97 in 16 mi NE 6.9 mph - -   Clear
3:50 PM 84.2 °F 32.0 °F 15% 29.98 in - NNE 17.3 mph - N/A   Clear
4:50 PM 86.0 °F 32.0 °F 14% 29.98 in - NNE 17.3 mph - N/A   Clear
5:50 PM 84.2 °F 32.0 °F 15% 29.95 in - NNE 20.7 mph - N/A   Clear
6:50 PM 82.4 °F 32.0 °F 16% 29.98 in - NNE 20.7 mph - N/A   Clear
7:50 PM 78.8 °F 30.2 °F 17% 29.98 in - NNE 17.3 mph - N/A   Clear
8:50 PM 78.8 °F 32.0 °F 18% 30.01 in - North 17.3 mph - N/A   Clear
9:00 PM 77 °F 30 °F 9% 30.01 in 9 mi North 8.1 mph - -   Partly Cloudy
9:50 PM 77.0 °F 32.0 °F 19% 30.04 in - North 16.1 mph - N/A   Clear